www.pogodaiklimat.ru

Погода и климат >> Архив погоды >> Мексика >> Sombrerete


ПОГОДА в Sombrerete

  • Прогноз погоды в Sombrerete
  • Монитор погоды в Sombrerete
  • Климат города

АРХИВ ПОГОДЫ в Sombrerete

Время (UTC), дата Ветер
(напр.,м/с)
 
Видим.   Явления Облачность Т
(С)
Тd
(С)
f
(%)
Тe
(С)
Тes
(С)
Комфортность P
(гПа)
Po
(гПа)
Тmin
(С)
Tmax
(С)
R
(мм)
R24
(мм)
S
(см)
12 9.12 штиль 0 16 км 3/3 600 м
[Cu hum]
+4.4 +3.6 95 +3 +3 1018.4 772.0 +3.4 +20.6
15 9.12 штиль 0 16 км ясно +5.2 +4.1 93 +4 +6 1022.0 773.2
18 9.12 ЮВ 2 16 км ясно +15.8 +6.8 55 +16 +26 1021.6 773.6 +2.2 +16.6
12 10.12 штиль 0 16 км ясно +4.4 +3.2 92 +3 +3 1017.7 772.7 +2.6 +20.2
15 10.12 штиль 0 16 км ясно +7.6 +4.1 78 +7 +9 1021.7 773.7
18 10.12 ЮВ 1 16 км ясно +14.8 +4.2 49 +15 +27 опасность
простуды
1021.1 773.6 +2.6 +14.8
21 10.12 В 2 16 км 3/0
[Ci fib]
+18.5 +6.6 46 +19 +26 1016.0 771.5
00 11.12 В 2 16 км ясно +16.0 +8.0 59 +16 +16 1013.0 771.5 +2.6 +19.8
12 11.12 штиль 0 16 км ясно +5.6 +4.1 90 +5 +5 1018.4 773.0 +4.4 +19.8
15 11.12 штиль 0 16 км 10/0
[Cs]
+7.8 +4.1 77 +7 +9 1021.3 773.9
18 11.12 ЮЗ 2 16 км 9/0 2000 м
[As trans]
+17.4 +7.0 50 +18 +22 1019.8 773.5 +4.0 +18.6
21 11.12 З 4 16 км 9/0 1500 м
[As trans]
+20.5 +4.7 35 +21 +23 комфорт 1013.8 771.0
00 12.12 СЗ 4 16 км 9/0 1500 м
[As trans]
+15.4 +1.8 40 +15 +15 1012.1 771.5 +4.0 +21.7
12 12.12 ЮЗ 1 15 км 6/6 1000 м
[St]
+9.2 +7.7 90 +9 +9 1014.6 770.3 +7.2 +21.7
15 12.12 штиль 0 15 км слабая морось 10/9 1080 м
[Sc Ac und]
+9.8 +8.8 93 +9 +9 1016.7 771.2 0.0
18 12.12 З 3 16 км осадки на расстоянии {морось} 10/10 1000 м
[St]
+13.6 +7.6 67 +13 +13 1015.7 770.7 0.0
21 12.12 З 4 16 км 9/6 1000 м
[Sc diur, vesp Cs]
+15.8 +6.0 52 +15 +17 1010.7 768.3
00 13.12 СЗ 3 16 км в посл. час морось 9/9 600 м
[St]
+12.0 +7.3 73 +10 +10 1008.8 767.7 0.0
12 13.12 З 3 16 км 5/0
[Cs]
+7.4 +3.7 77 +5 +5 1010.6 766.9 +6.6 +18.8
15 13.12 ЮЗ 2 16 км 3/0
[Cs]
+8.7 +3.5 70 +7 +9 1013.8 768.7
18 13.12 С 3 16 км 4/0
[Cs]
+16.7 +3.0 40 +17 +24 1013.9 769.3 +5.6 +17.8
12 14.12 штиль 0 16 км ясно +0.1 -5.9 64 -1 -1 1022.7 771.9 -1.0 +18.8
15 14.12 штиль 0 16 км ясно +0.4 -4.9 68 -0 +2 1027.0 773.5
18 14.12 С 4 16 км 4/0
[Ci fib]
+6.6 -6.3 39 +4 +10 1027.6 773.9 -2.9 +6.6
12 15.12 штиль 0 16 км ясно -1.2 -6.6 67 -2 -2 1023.7 771.7 -3.4 +10.4
15 15.12 штиль 0 16 км ясно -0.2 -7.5 58 -1 +2 1027.2 772.7
18 15.12 СВ 1 16 км ясно +12.0 -4.1 32 +12 +24 опасность
простуды
1026.0 772.6 -3.4 +12.0

 

Местоположение метеостанции Sombrerete (Мексика): широта 23.63 долгота -103.60 высота над уровнем моря 2351 м.

В архиве по умолчанию представлена погода в Sombrerete за последнюю неделю. Архивные данные за месяц целиком и за предыдущие месяцы, начиная с января 2011 года, Вы можете получить, выбрав интересующий диапазон дат из раскрывающегося списка и нажав кнопку "Ввод!".


*Определитесь, кто Вы:
робот инопланетянин человек

Внимание! Время в таблицах - всемирное. Для получения местного времени необходимо прибавить поправку, которая в Sombrerete равна -6 ч.

Смотрите также архив погоды в соседних городах и на ближайших метеорологических станциях:

Погода в Durango (Мексика) (112 км)
Погода в Huejucar (Мексика) (141 км)
Погода в Zacatecas (Мексика) (147 км)
Погода в Colotlan (Мексика) (174 км)
Погода в Torreon (Мексика) (212 км)
Погода в Aguascalientes (Мексика) (237 км)
Погода в Tepic (Мексика) (265 км)
Погода в Tepehuanes (Мексика) (287 км)
Погода в Mazatlan (Мексика) (290 км)
Погода в Lagos De Moreno (Мексика) (307 км)

Пояснения к столбцам:

Ветер - указаны скорость ветра в м/с - средняя за 10 мин, порывы в срок и между сроками (в фигурных скобках) и направление, откуда дует ветер: С - северный, СВ - северо-восточный, В - восточный, ЮВ - юго-восточный, Ю - южный, ЮЗ - юго-западный, З - западный, СЗ - северо-западный.
Видимость - горизонтальная дальность видимости в метрах или километрах. При видимости от 1 до 10 км при отсутствии осадков обычно наблюдается дымка, при ухудшении видимости до 1 км и менее - туман. В сухую погоду видимость может ухудшаться дымом, пылью или мглою.
Явления - указаны атмосферные явления, наблюдавшиеся в срок или в последний час перед сроком; фигурными скобками обозначены явления, наблюдавшиеся между сроками (за 1-3 часа до срока); квадратными скобками обозначены град или гололедные отложения с указанием их диаметра в мм.
Облачность - указаны через наклонную черту общая и нижняя облачность в баллах и высота нижней границы облаков в метрах; квадратными скобками обозначены формы облаков: Ci - перистые, Cs - перисто-слоистые, Cc - перисто-кучевые, Ac - высококучевые, As - высокослоистые, Sc - слоисто-кучевые, Ns - слоисто-дождевые, Cu - кучевые, Cb - кучево-дождевые. Подробнее классификацию облаков см. в Атласе облаков (PDF).
T - Температура воздуха - температура, измеренная на высоте 2 м над землей.
Td - Температура точки росы - температура, при понижении до которой содержащийся в воздухе водяной пар достигнет насыщения.
f - Относительная влажность воздуха - влажноcть воздуха, измеренная на высоте 2 м над землей.
Te - Эффективная температура - температура, которую ощущает одетый по сезону человек в тени. Характеристика душности погоды. При расчете учитывается влияние влажности воздуха и скорости ветра на теплоощущения человека.
Tes - Эффективная температура на солнце - температура, которую ощущает человек, с поправкой на солнечный нагрев. Характеристика знойности погоды. Зависит от высоты солнца над горизонтом, облачности и скорости ветра. Ночью, в пасмурную погоду, а также при ветре 12 м/с и более поправка равна нулю.
P - Атмосферное давление - приведенное к уровню моря атмосферное давление.
Po - Атмосферное давление - измеренное на уровне метеостанции атмосферное давление.
Tmin - Минимальная температура - минимум температуры воздуха на высоте 2 м над землей.
Tmax - Максимальная температура - максимум температуры воздуха на высоте 2 м над землей.
R - Количество осадков - Количество выпавших осадков за период времени, мм. При наведении курсора мыши на число - период времени, за который выпало указанное количество осадков.
R24 - Количество осадков - Количество выпавших осадков за 24 часа, мм.
S - Снежный покров - Высота снежного покрова, см. При наведении курсора мыши на число - состояние снежного покрова и степень покрытия местности в баллах.